Airfield :







YOU CAN JOIN US ON...

 
LOGIN :

Register | Disclaimer

   EN    FR    IT 

 









Legend :    VFR   Marginal VFR   IFR   Intensive IFR   Very Intensive IFR
Visi :
Ceiling :
>= 8 km
>= 3000ft
5 to 8 km
1000 to 3000 ft
1500m to 5 km
500 to 1000 ft
800 to 1500m
200 to 500 ft
< 800m
< 200 ft
Symbols :   Thunderstorms  Fog  Heavy snow  Heavy precipitations  Wind > 20 kt






- Airport Elevation : 454 ft


KIZG - Eastern Slopes Regional

CURRENT METAR :
  • 171954Z AUTO 30008G21KT 260V330 10SM CLR 01/M14 A3023 RMK AO2 SLP246 T00061139

EXPIRED METARs :
  • 171854Z AUTO 30009G16KT 10SM CLR 01/M13 A3021 RMK AO2 SLP236 T00111133
  • 171754Z AUTO 29010G18KT 10SM CLR 01/M13 A3019 RMK AO2 SLP230 T00111133 10011 21061 53012

TAF N/A



MET'MAP, your aeronautical weather chart ! - Copyright ORBIFLY December 2007 - Disclaimer

ORBIFLY MET'MAP TEAM :

Programming & Development : Alexandra Zaïnal
Concept & original design : Baudouin d'Aumeries
Assistance for programming : Marc-Olivier Méhu
Technical & hardware support : Manuel Goepfert

Contact : metmap@orbifly.com




SOURCES & CREDITS :

   NOAA